{"data":{"norad_id":67788,"intl_designator":"2026-030AA","name":"KUIPER-00262","alt_names":[],"object_type":"PAYLOAD","status":"ACTIVE","operator":null,"country":"US","launch_date":"2026-02-12","launch_site_code":"FRGUI","launch_vehicle":null,"mission":null,"orbit_class":"UNKNOWN","rcs_meters":null,"size_class":null,"mass_kg":null,"dimensions":null,"purposes":[],"wikipedia_slug":null,"has_3d_model":false,"image_url":null,"decayed_at":null,"tle_current":{"epoch":"2026-05-25T05:10:37.128000Z","epoch_age_seconds":53518,"freshness":"FRESH","line1":"1 67788U 26030AA  26145.21570750  .00069479  00000+0  91005-2 0  9993","line2":"2 67788  51.8998 217.2270 0000589 176.8771 183.2194 14.79693326 16755","mean_motion":14.79693326,"eccentricity":5.89e-5,"inclination_deg":51.8998,"raan_deg":217.227,"arg_perigee_deg":176.8771,"mean_anomaly_deg":183.2194,"bstar":0.0091005,"rev_number":1675,"period_min":97.317462659151,"perigee_km":629.87952623706,"apogee_km":630.70511921128,"semimajor_km":7008.4293227242,"source":"CELESTRAK","updated_at":"2026-05-25T13:38:07.262472Z"}}}